Auly

Ukraine / Dnipropetrovsk Region     48˚33′17″N   34˚27′37″E
temp.,
°C
wind,
m/s
gust,
m/s
humid.,
%
clouds,
%
prec.,
mm/h
press.,
hPa
HPBL,
m
28 november, sat
sat2823:00+4˚sw35917 0.0 1020116
02:00+2˚sw338741 0.0 102048
05:00+3˚ssw2387100 0.0 101948
08:00+5˚s3698100 0.0 1020150
11:00+8˚s61388100 0.4 1019597
14:00+9˚s71277100 0.5 1018624
17:00+8˚sse71375100 0.0 1019500
20:00+8˚sse61175100 0.1 1019446
29 november, sun
sun2923:00+8˚sse61187100 0.1 1019436
02:00+7˚sse61191100 0.1 1019297
05:00+7˚sse71185100 0.0 1018355
08:00+7˚sse61190100 0.0 1020444
11:00+9˚sse61082100 0.0 1020677
14:00+9˚s4879100 0.1 1021654
17:00+9˚sse3785100 0.1 1020320
20:00+8˚sse51092100 0.5 1021438
30 november, mon
mon3023:00+6˚sse61192100 0.2 1021346
02:00+6˚sse51190100 0.2 1021374
05:00+5˚se4991100 0.0 1021359
08:00+5˚se5985100 0.0 1023428
11:00+6˚se5780100 0.0 1023539
14:00+7˚ese5776100 0.0 1023633
17:00+6˚ese3779100 0.0 1023538
20:00+4˚ese3880100 0.0 1024375
1 december, tue
tue123:00+3˚ene3483100 0.0 1024116
02:00+5˚ne3477100 0.0 1024124
05:00+4˚e4774100 0.0 1024486
08:00+3˚e4669100 0.0 1025571
11:00+3˚e4569100 0.0 1025688
14:00+2˚ene4581100 0.0 1025536
17:00+1˚e4695100 0.1 1025390
20:00+1˚e4695100 0.1 1025399
2 december, wed
wed223:00+2˚e3595100 0.1 1025286
02:00+2˚ene4596100 0.1 1026267
05:00+1˚ene4696100 0.1 1026275
08:00+2˚e4786100 0.2 1026475
11:00+3˚ese4776100 0.0 1027615
14:00+3˚ese4674100 0.0 1026651
17:00+3˚e4773100 0.0 1027630
20:00+3˚e4773100 0.0 1027630